VE2YMM-13 Weather Reports


Display with metric or nautical units.
time (UTC)temp
F
wind
direction
speed
MPH
gust
MPH
rain 1hr
in
rain 24hr
in
rain mn
in
humidity
%
barometer
mb
20260508015616 49 0.0 0.0 0.00 0.00 0.00 54 1008.6
20260508015116 49 0.0 0.0 0.00 0.00 0.00 54 1008.6
20260508014616 49 0.0 0.0 0.00 0.00 0.00 54 1008.6
20260508014116 49 0.0 0.0 0.00 0.00 0.00 54 1008.5
20260508013616 49 0.0 1.0 0.00 0.00 0.00 54 1008.5
20260508013117 49 0.0 0.0 0.00 0.00 0.00 53 1008.5
20260508012616 49 0.0 0.0 0.00 0.00 0.00 53 1008.5
20260508012116 49 0.0 1.0 0.00 0.00 0.00 53 1008.5
20260508011615 49 0.0 0.0 0.00 0.00 0.00 53 1008.4
20260508011116 50 0.0 1.0 0.00 0.00 0.00 53 1008.4
20260508010636 50 0.0 0.0 0.00 0.00 0.00 52 1008.4
20260508010116 50 0.0 0.0 0.00 0.00 0.00 52 1008.4
20260508005616 50 0.0 1.0 0.00 0.00 0.00 51 1008.3
20260508005116 50 0.0 2.0 0.00 0.00 0.00 51 1008.2
20260508004636 50 0.0 1.0 0.00 0.00 0.00 51 1008.2
20260508004116 50 270 2.0 4.0 0.00 0.00 0.00 50 1008.2
20260508003615 50 0.0 1.0 0.00 0.00 0.00 50 1008.1
20260508003138 50 0.0 1.0 0.00 0.00 0.00 50 1008.1
20260508002618 50 293 1.0 2.0 0.00 0.00 0.00 50 1008.0
20260508002137 51 293 1.0 1.0 0.00 0.00 0.00 49 1007.9
20260508001638 51 293 1.0 3.0 0.00 0.00 0.00 49 1007.9
20260508001138 51 293 2.0 2.0 0.00 0.00 0.00 49 1007.9
20260508000618 51 293 3.0 5.0 0.00 0.00 0.00 49 1007.9
20260508000117 51 0.0 1.0 0.00 0.00 0.00 48 1007.9
20260507235617 51 293 1.0 3.0 0.00 0.00 0.00 48 1007.9
20260507235117 51 293 3.0 7.0 0.00 0.00 0.00 47 1007.9
20260507234618 51 293 3.0 6.0 0.00 0.00 0.00 47 1007.9
20260507234117 51 293 2.0 3.0 0.00 0.00 0.00 47 1007.9
20260507233618 51 293 6.0 9.0 0.00 0.00 0.00 46 1007.9
20260507233117 51 293 6.0 9.0 0.00 0.00 0.00 46 1007.9
20260507232617 52 270 3.0 4.0 0.00 0.00 0.00 46 1007.8
20260507232118 52 293 4.0 7.0 0.00 0.00 0.00 45 1007.8
20260507231618 52 248 3.0 5.0 0.00 0.00 0.00 45 1007.7
20260507231117 52 293 4.0 9.0 0.00 0.00 0.00 45 1007.7
20260507230618 53 248 5.0 9.0 0.00 0.00 0.00 43 1007.8
20260507230117 53 293 6.0 10.0 0.00 0.00 0.00 43 1007.7
20260507225618 54 270 6.0 9.0 0.00 0.00 0.00 43 1007.7
20260507225118 54 315 5.0 8.0 0.00 0.00 0.00 43 1007.7
20260507224618 54 270 4.0 8.0 0.00 0.00 0.00 44 1007.6
20260507224117 53 315 2.0 4.0 0.00 0.00 0.00 44 1007.6
20260507223658 53 248 3.0 5.0 0.00 0.00 0.00 45 1007.6
20260507223117 53 293 5.0 8.0 0.00 0.00 0.00 45 1007.7
20260507222617 52 315 1.0 3.0 0.00 0.00 0.00 45 1007.6
20260507222117 52 293 4.0 8.0 0.00 0.00 0.00 45 1007.7
20260507221617 52 293 6.0 11.0 0.00 0.00 0.00 46 1007.7
20260507221117 52 0 3.0 6.0 0.00 0.00 0.00 46 1007.7
20260507220617 52 248 7.0 11.0 0.00 0.00 0.00 45 1007.7
20260507220118 52 270 6.0 8.0 0.00 0.00 0.00 45 1007.8
20260507215617 52 248 4.0 8.0 0.00 0.00 0.00 44 1007.7
20260507215117 52 248 4.0 8.0 0.00 0.00 0.00 45 1007.7
20260507214617 53 270 6.0 13.0 0.00 0.00 0.00 44 1007.8
20260507214117 52 293 5.0 10.0 0.00 0.00 0.00 45 1007.6
20260507213637 52 248 4.0 10.0 0.00 0.00 0.00 46 1007.6
20260507213117 52 270 3.0 7.0 0.00 0.00 0.00 46 1007.6
20260507212617 52 270 10.0 15.0 0.00 0.00 0.00 46 1007.6
20260507212117 51 248 6.0 10.0 0.00 0.00 0.00 47 1007.6
20260507211617 51 248 10.0 16.0 0.00 0.00 0.00 46 1007.6
20260507211117 51 270 6.0 14.0 0.00 0.00 0.00 46 1007.5
20260507210617 51 315 7.0 12.0 0.00 0.00 0.00 46 1007.5
20260507210117 52 270 9.0 13.0 0.00 0.00 0.00 46 1007.5
20260507205617 52 270 9.0 14.0 0.00 0.00 0.00 45 1007.5
20260507205117 53 270 7.0 16.0 0.00 0.00 0.00 45 1007.5
20260507204617 52 225 9.0 16.0 0.00 0.00 0.00 45 1007.4
20260507204117 53 270 10.0 14.0 0.00 0.00 0.00 44 1007.3
20260507203618 53 270 9.0 18.0 0.00 0.00 0.00 45 1007.4
20260507203117 53 248 12.0 17.0 0.00 0.00 0.00 43 1007.3
20260507202617 53 270 12.0 19.0 0.00 0.00 0.00 43 1007.1
20260507202137 54 248 9.0 14.0 0.00 0.00 0.00 42 1007.3
20260507201617 54 248 12.0 18.0 0.00 0.00 0.00 42 1007.3
20260507201116 54 270 11.0 16.0 0.00 0.00 0.00 45 1007.2
20260507200617 54 248 9.0 13.0 0.00 0.00 0.00 45 1007.2
20260507200117 54 270 3.0 7.0 0.00 0.00 0.00 46 1007.2
20260507195617 54 270 6.0 12.0 0.00 0.00 0.00 46 1007.2
20260507195117 53 270 7.0 16.0 0.00 0.00 0.00 48 1007.4
20260507194617 53 270 9.0 15.0 0.00 0.00 0.00 47 1007.3
20260507194117 53 293 7.0 12.0 0.00 0.00 0.00 46 1007.3
20260507193637 53 248 9.0 13.0 0.00 0.00 0.00 45 1007.3
20260507193137 53 248 12.0 19.0 0.00 0.00 0.00 44 1007.3
20260507192617 52 293 7.0 13.0 0.00 0.00 0.00 45 1007.2
20260507192117 52 270 11.0 14.0 0.00 0.00 0.00 45 1007.3
20260507191617 52 270 5.0 12.0 0.00 0.00 0.00 47 1007.4
20260507191137 52 248 5.0 10.0 0.00 0.00 0.00 46 1007.4
20260507190637 53 293 10.0 18.0 0.00 0.00 0.00 45 1007.4
20260507190117 53 270 6.0 10.0 0.00 0.00 0.00 46 1007.4
20260507185617 52 270 6.0 10.0 0.00 0.00 0.00 47 1007.4
20260507185137 51 248 5.0 8.0 0.00 0.00 0.00 48 1007.4
20260507184617 51 293 9.0 15.0 0.00 0.00 0.00 48 1007.5
20260507184117 52 248 10.0 17.0 0.00 0.00 0.00 46 1007.5
20260507183617 52 293 10.0 16.0 0.00 0.00 0.00 45 1007.4
20260507183117 52 270 9.0 17.0 0.00 0.00 0.00 43 1007.3
20260507182617 52 293 7.0 13.0 0.00 0.00 0.00 43 1007.3
20260507182117 52 293 7.0 12.0 0.00 0.00 0.00 44 1007.2
20260507181637 52 270 9.0 16.0 0.00 0.00 0.00 44 1007.2
20260507181137 52 248 8.0 13.0 0.00 0.00 0.00 44 1007.1
20260507180616 51 248 10.0 15.0 0.00 0.00 0.00 45 1007.2
20260507180117 51 270 9.0 17.0 0.00 0.00 0.00 46 1007.2
20260507175616 51 270 12.0 17.0 0.00 0.00 0.00 46 1007.3
20260507175116 51 270 11.0 16.0 0.00 0.00 0.00 46 1007.1
20260507174616 51 293 8.0 14.0 0.00 0.00 0.00 46 1007.2
20260507174117 51 270 9.0 15.0 0.00 0.00 0.00 46 1007.1
20260507173616 51 248 10.0 16.0 0.00 0.00 0.00 46 1007.1
20260507173117 51 248 15.0 19.0 0.00 0.00 0.00 47 1007.2
20260507172616 51 270 12.0 24.0 0.00 0.00 0.00 47 1007.2
20260507172116 51 248 12.0 15.0 0.00 0.00 0.00 46 1007.2
20260507171617 52 248 10.0 21.0 0.00 0.00 0.00 45 1007.1
20260507171117 52 248 12.0 18.0 0.00 0.00 0.00 45 1007.1
20260507170616 52 248 10.0 13.0 0.00 0.00 0.00 44 1007.1
20260507170117 52 270 9.0 11.0 0.00 0.00 0.00 45 1007.2
20260507165616 51 248 10.0 16.0 0.00 0.00 0.00 46 1007.4
20260507165116 51 225 15.0 20.0 0.00 0.00 0.00 45 1007.1
20260507164616 52 270 11.0 20.0 0.00 0.00 0.00 46 1007.3
20260507164136 52 248 9.0 15.0 0.00 0.00 0.00 46 1007.3
20260507163617 51 225 9.0 14.0 0.00 0.00 0.00 47 1007.3
20260507163116 51 270 15.0 25.0 0.00 0.00 0.00 44 1007.6
20260507162616 51 248 15.0 23.0 0.00 0.00 0.00 44 1007.5
20260507162117 51 270 15.0 24.0 0.00 0.00 0.00 48 1007.5
20260507161616 51 248 13.0 19.0 0.00 0.01 0.00 46 1007.5
20260507161116 51 293 13.0 23.0 0.00 0.01 0.00 47 1007.4
20260507160617 51 248 17.0 32.0 0.00 0.01 0.00 47 1007.5
20260507160117 50 248 16.0 24.0 0.00 0.01 0.00 48 1007.4
20260507155636 50 248 14.0 22.0 0.00 0.01 0.00 50 1007.4
20260507155116 50 248 12.0 18.0 0.00 0.02 0.00 53 1007.5
20260507154617 50 248 11.0 18.0 0.00 0.02 0.00 54 1007.5
20260507154116 50 225 8.0 12.0 0.00 0.02 0.00 54 1007.5
20260507153616 50 248 13.0 18.0 0.00 0.02 0.00 55 1007.5
20260507153116 50 248 12.0 18.0 0.00 0.02 0.00 55 1007.6
20260507152616 50 248 10.0 17.0 0.00 0.02 0.00 55 1007.4
20260507152116 50 270 10.0 19.0 0.00 0.02 0.00 56 1007.5
20260507151616 50 248 9.0 17.0 0.00 0.02 0.00 56 1007.5
20260507151136 50 248 12.0 18.0 0.00 0.03 0.00 56 1007.4
20260507150616 49 270 10.0 14.0 0.00 0.03 0.00 57 1007.4
20260507150117 49 225 11.0 17.0 0.00 0.04 0.00 56 1007.5
20260507145616 49 248 10.0 16.0 0.00 0.04 0.00 56 1007.6
20260507145116 49 270 7.0 12.0 0.00 0.04 0.00 59 1007.5
20260507144616 48 270 9.0 14.0 0.00 0.05 0.00 58 1007.6
20260507144156 48 270 10.0 20.0 0.00 0.06 0.00 57 1007.6
20260507143616 48 270 10.0 16.0 0.00 0.06 0.00 58 1007.6
20260507143116 48 248 11.0 17.0 0.00 0.07 0.00 58 1007.6
20260507142616 48 225 8.0 14.0 0.00 0.07 0.00 58 1007.5
20260507142136 48 270 9.0 17.0 0.00 0.08 0.00 59 1007.6
20260507141616 48 248 12.0 20.0 0.00 0.09 0.00 58 1007.6
20260507141116 48 248 7.0 12.0 0.00 0.09 0.00 59 1007.7
20260507140637 48 270 10.0 14.0 0.00 0.09 0.00 58 1007.7
20260507140116 47 248 9.0 16.0 0.00 0.09 0.00 59 1007.6
20260507135636 47 248 8.0 13.0 0.00 0.10 0.00 59 1007.8
20260507135136 47 248 8.0 12.0 0.00 0.10 0.00 59 1007.6
20260507134615 47 248 7.0 13.0 0.00 0.11 0.00 60 1007.7
20260507134116 47 248 9.0 12.0 0.00 0.11 0.00 59 1007.7
20260507133616 47 225 8.0 14.0 0.00 0.12 0.00 59 1007.7
20260507133116 47 270 8.0 11.0 0.00 0.12 0.00 61 1007.7
20260507132636 47 270 8.0 11.0 0.00 0.13 0.00 61 1007.7
20260507132116 46 225 6.0 10.0 0.00 0.13 0.00 62 1007.7
20260507131616 46 248 13.0 19.0 0.00 0.13 0.00 62 1007.8
20260507131116 46 225 8.0 15.0 0.00 0.14 0.00 63 1007.7
20260507130616 46 270 13.0 21.0 0.00 0.14 0.00 62 1007.8
20260507130116 46 225 6.0 14.0 0.00 0.14 0.00 63 1007.7
20260507125616 46 248 11.0 17.0 0.00 0.15 0.00 63 1007.8
20260507125116 45 248 8.0 12.0 0.00 0.15 0.00 65 1007.7
20260507124637 45 270 11.0 17.0 0.00 0.15 0.00 64 1007.8
20260507124116 45 248 12.0 17.0 0.00 0.15 0.00 64 1007.8
20260507123616 45 270 10.0 15.0 0.00 0.16 0.00 64 1007.7
20260507123136 45 270 12.0 16.0 0.00 0.17 0.00 65 1007.7
20260507122616 45 248 11.0 16.0 0.00 0.17 0.00 65 1007.7
20260507122116 45 270 7.0 12.0 0.00 0.17 0.00 66 1007.7
20260507121616 45 225 11.0 14.0 0.00 0.17 0.00 67 1007.6
20260507121118 45 248 15.0 22.0 0.00 0.18 0.00 66 1007.8
20260507120618 45 248 10.0 17.0 0.00 0.18 0.00 66 1007.8
20260507120117 45 270 14.0 22.0 0.00 0.18 0.00 66 1007.8
20260507115658 45 248 6.0 10.0 0.00 0.19 0.00 66 1007.8
20260507115118 44 270 8.0 14.0 0.00 0.19 0.00 67 1007.7
20260507114618 44 248 9.0 13.0 0.00 0.19 0.00 67 1007.7
20260507114126 44 248 12.0 20.0 0.00 0.20 0.00 68 1007.7
20260507113617 44 248 8.0 15.0 0.00 0.20 0.00 69 1007.7
20260507113118 44 248 8.0 14.0 0.00 0.20 0.00 69 1007.7
20260507112617 44 248 10.0 16.0 0.00 0.20 0.00 68 1007.6
20260507112117 44 225 14.0 19.0 0.00 0.20 0.00 69 1007.8
20260507111618 45 270 11.0 15.0 0.00 0.21 0.00 69 1007.7
20260507111117 45 225 10.0 14.0 0.00 0.21 0.00 71 1007.7
20260507110618 45 248 9.0 22.0 0.00 0.21 0.00 72 1007.5
20260507110118 45 248 12.0 15.0 0.00 0.22 0.00 76 1007.4
20260507105617 45 248 12.0 18.0 0.00 0.22 0.00 78 1007.4
20260507105117 45 248 5.0 9.0 0.00 0.22 0.00 79 1007.3
20260507104618 45 248 7.0 11.0 0.00 0.23 0.00 81 1007.1
20260507104117 45 248 9.0 16.0 0.00 0.23 0.00 83 1007.1
20260507103618 45 225 5.0 10.0 0.00 0.24 0.00 84 1007.1
20260507103117 45 248 6.0 9.0 0.00 0.24 0.00 85 1007.2
20260507102617 45 225 6.0 10.0 0.00 0.24 0.00 85 1007.0
20260507102137 45 248 9.0 12.0 0.00 0.24 0.00 85 1007.0
20260507101717 45 225 7.0 12.0 0.00 0.24 0.00 85 1007.0
20260507101117 46 248 7.0 10.0 0.00 0.24 0.00 86 1007.2
20260507100618 46 225 7.0 13.0 0.00 0.24 0.00 86 1007.1
20260507100117 46 248 6.0 15.0 0.00 0.24 0.00 86 1007.1
20260507095618 46 270 3.0 8.0 0.00 0.24 0.00 86 1007.1
20260507095117 46 248 7.0 12.0 0.00 0.24 0.00 85 1007.2
20260507094617 46 270 5.0 12.0 0.00 0.24 0.00 85 1007.2
20260507094117 46 270 6.0 12.0 0.00 0.24 0.00 85 1007.2
20260507093617 46 225 6.0 10.0 0.00 0.24 0.00 85 1007.2
20260507093117 46 225 9.0 16.0 0.00 0.24 0.00 86 1007.2
20260507092637 46 270 5.0 7.0 0.00 0.24 0.00 86 1007.2
20260507092117 46 248 7.0 12.0 0.00 0.24 0.00 86 1007.1
20260507091617 46 248 9.0 17.0 0.00 0.24 0.00 86 1007.1
20260507091117 46 248 6.0 10.0 0.00 0.24 0.00 86 1007.0
20260507090617 46 225 6.0 10.0 0.00 0.24 0.00 86 1007.0
20260507090117 46 248 6.0 14.0 0.00 0.24 0.00 86 1007.0
20260507085618 46 225 7.0 10.0 0.00 0.24 0.00 86 1007.0
20260507085117 46 248 2.0 4.0 0.00 0.24 0.00 86 1007.0
20260507084617 46 203 4.0 5.0 0.00 0.24 0.00 86 1006.9
20260507084117 46 248 5.0 8.0 0.00 0.24 0.00 86 1007.0
20260507083617 46 225 3.0 6.0 0.00 0.24 0.00 86 1006.9
20260507083117 46 225 4.0 7.0 0.00 0.24 0.00 86 1006.9
20260507082617 46 270 3.0 9.0 0.00 0.24 0.00 86 1007.0
20260507082117 46 225 6.0 10.0 0.00 0.24 0.00 86 1007.0
20260507081617 46 248 1.0 3.0 0.00 0.24 0.00 86 1007.0
20260507081118 46 225 2.0 3.0 0.00 0.24 0.00 86 1007.2
20260507080617 46 248 2.0 4.0 0.00 0.24 0.00 86 1007.2
20260507080117 46 270 6.0 9.0 0.00 0.24 0.00 86 1007.3
20260507075618 46 270 4.0 6.0 0.00 0.24 0.00 86 1007.3
20260507075117 46 270 4.0 7.0 0.00 0.24 0.00 86 1007.2
20260507074617 46 248 4.0 9.0 0.00 0.24 0.00 86 1007.4
20260507074157 46 248 4.0 7.0 0.00 0.24 0.00 86 1007.4
20260507073617 46 270 2.0 3.0 0.00 0.24 0.00 85 1007.3
20260507073117 46 225 4.0 8.0 0.00 0.24 0.00 85 1007.4
20260507072617 46 225 5.0 8.0 0.00 0.24 0.00 85 1007.3
20260507072117 46 248 3.0 6.0 0.00 0.24 0.00 85 1007.3
20260507071617 46 248 6.0 10.0 0.00 0.24 0.00 85 1007.4
20260507071137 46 248 6.0 9.0 0.00 0.24 0.00 85 1007.4
20260507070637 46 270 6.0 9.0 0.00 0.24 0.00 85 1007.3
20260507070117 46 225 6.0 12.0 0.00 0.24 0.00 85 1007.3
20260507065617 45 270 3.0 5.0 0.00 0.24 0.00 85 1007.4
20260507065117 45 225 6.0 8.0 0.00 0.24 0.00 85 1007.4
20260507064617 45 248 1.0 6.0 0.00 0.24 0.00 85 1007.4
20260507064117 45 248 3.0 4.0 0.00 0.24 0.00 85 1007.5
20260507063616 45 248 4.0 7.0 0.00 0.24 0.00 85 1007.5
20260507063117 45 248 4.0 7.0 0.00 0.24 0.00 85 1007.6
20260507062637 45 248 6.0 9.0 0.00 0.24 0.00 85 1007.6
20260507062117 45 248 4.0 7.0 0.00 0.24 0.00 85 1007.5
20260507061617 45 248 3.0 5.0 0.00 0.24 0.00 85 1007.5
20260507061117 45 225 4.0 7.0 0.00 0.24 0.00 86 1007.5
20260507060617 45 248 5.0 8.0 0.00 0.24 0.00 86 1007.5
20260507060116 45 248 4.0 6.0 0.00 0.24 0.00 86 1007.7
20260507055617 45 248 4.0 7.0 0.00 0.24 0.00 86 1007.7
20260507055117 45 248 3.0 5.0 0.00 0.24 0.00 86 1007.7
20260507054617 45 248 2.0 3.0 0.00 0.24 0.00 86 1007.8
20260507054137 45 248 2.0 3.0 0.00 0.24 0.00 86 1007.8
20260507053616 45 225 2.0 5.0 0.00 0.24 0.00 86 1007.8
20260507053117 45 248 3.0 6.0 0.00 0.24 0.00 86 1007.9
20260507052617 45 225 2.0 4.0 0.00 0.24 0.00 86 1007.9
20260507052116 45 225 2.0 4.0 0.00 0.24 0.00 86 1007.9
20260507051617 45 248 1.0 2.0 0.00 0.24 0.00 86 1007.8
20260507051117 45 248 4.0 6.0 0.00 0.24 0.00 86 1008.0
20260507050616 45 203 2.0 4.0 0.00 0.24 0.00 86 1008.1
20260507050116 45 248 4.0 7.0 0.00 0.24 0.00 86 1008.2
20260507045616 45 225 2.0 4.0 0.00 0.24 0.00 86 1008.3
20260507045116 45 225 3.0 5.0 0.00 0.24 0.00 86 1008.4
20260507044617 45 225 1.0 3.0 0.00 0.24 0.00 86 1008.4
20260507044117 45 225 2.0 3.0 0.00 0.24 0.00 86 1008.5
20260507043616 45 225 2.0 6.0 0.00 0.24 0.00 85 1008.5
20260507043116 46 225 2.0 3.0 0.00 0.24 0.00 85 1008.6
20260507042616 46 248 3.0 7.0 0.00 0.24 0.00 85 1008.6
20260507042116 46 225 2.0 4.0 0.00 0.24 0.00 85 1008.5
20260507041637 46 248 4.0 7.0 0.00 0.24 0.00 85 1008.6
20260507041116 46 225 4.0 7.0 0.00 0.24 0.00 85 1008.6
20260507040616 46 248 4.0 6.0 0.00 0.24 0.00 85 1008.7
20260507040116 46 248 5.0 9.0 0.00 0.24 0.00 85 1008.7
20260507035616 46 270 3.0 5.0 0.00 0.24 0.24 85 1008.7
20260507035116 46 225 4.0 5.0 0.00 0.24 0.24 85 1008.7
20260507034616 46 225 5.0 8.0 0.00 0.24 0.24 85 1008.8
20260507034117 46 248 3.0 5.0 0.00 0.24 0.24 85 1008.8
20260507033616 46 293 3.0 8.0 0.00 0.24 0.24 85 1008.9
20260507033116 46 248 3.0 4.0 0.00 0.24 0.24 85 1008.9
20260507032617 46 248 3.0 4.0 0.00 0.24 0.24 85 1008.9
20260507032117 46 248 2.0 4.0 0.00 0.24 0.24 84 1008.9
20260507031616 46 270 2.0 3.0 0.00 0.24 0.24 84 1008.9
20260507031116 46 225 3.0 5.0 0.00 0.24 0.24 84 1009.0
20260507030616 46 248 3.0 4.0 0.00 0.24 0.24 83 1009.0
20260507030117 46 248 2.0 3.0 0.00 0.24 0.24 83 1009.0
20260507025618 46 248 2.0 3.0 0.00 0.24 0.24 83 1009.0
20260507025117 46 203 2.0 4.0 0.00 0.24 0.24 82 1009.0
20260507024616 46 248 3.0 4.0 0.00 0.24 0.24 82 1009.1
20260507024116 46 248 3.0 4.0 0.00 0.24 0.24 82 1009.1
20260507023616 46 248 3.0 4.0 0.00 0.24 0.24 81 1009.1
20260507023116 46 225 3.0 5.0 0.00 0.24 0.24 81 1009.1
20260507022637 47 225 4.0 5.0 0.00 0.24 0.24 81 1009.1
20260507022116 47 248 1.0 2.0 0.00 0.24 0.24 81 1009.2
20260507021617 47 248 3.0 4.0 0.00 0.24 0.24 80 1009.2
20260507021117 47 248 3.0 4.0 0.00 0.24 0.24 80 1009.2
20260507020616 47 248 1.0 2.0 0.00 0.24 0.24 80 1009.3
20260507020136 47 225 3.0 6.0 0.00 0.24 0.24 80 1009.3